Location: ????????
(60.4333°N, 46.4710°E)
Time: 04:34:41
(UTC+00:00)

Cosmos 2322 Rocket - Pass Details

Date: 25 November 2020
Orbit: 834 x 849 km, 71.0° (Epoch: 19 January)

Event Time Altitude Azimuth Distance (km) Brightness Sun altitude
Rises 14:51:43 0° 260° (W) 3,411 7.0 -19.4°
Reaches altitude 10° 14:54:22 10° 269° (W) 2,476 5.8 -19.7°
Maximum altitude 14:59:37 37° 336° (NNW) 1,301 3.3 -20.3°
Enters shadow 15:02:40 22° 29° (NNE) 1,789 3.6 -20.7°
